Location: Franzen
(48.6167°N, 15.3833°E)
Time: 13:43:37
(UTC+00:00)

BREEZE-M DEB (TANK) - Pass Details

Date: 22 April 2021
Orbit: 334 x 11681 km, 49.7° (Epoch: 15 May)

Event Time Altitude Azimuth Distance (km) Brightness Sun altitude
Rises 18:56:27 0° 254° (WSW) 2,300 7.2 -9.2°
Reaches altitude 10° 18:57:52 10° 254° (WSW) 1,633 6.4 -9.4°
Maximum altitude 19:01:02 88° 168° (SSE) 737 3.9 -9.8°
Drops below altitude 10° 19:09:48 10° 78° (ENE) 4,321 7.4 -11.0°
Sets 19:16:01 0° 79° (ENE) 6,849 8.5 -11.9°
